Weather History for Carlsbad, NM

Change the Weather History Date:

Saturday, September 6, 2014

  Actual Average Record
Temperature  
Mean Temperature 67 °F -  
Max Temperature 66 °F 89 °F 106 °F (2000)
Min Temperature 63 °F 63 °F 49 °F (1984)
Cooling Degree Days 2    
Growing Degree Days 17 (Base 50)    
Moisture  
Dew Point 62 °F    
Average Humidity 90    
Maximum Humidity 94    
Minimum Humidity 81    
Precipitation  
Precipitation 0.00 in - - ()
Sea Level Pressure  
Sea Level Pressure 30.17 in    
Wind  
Wind Speed 13 mph (NNW)    
Max Wind Speed 21 mph    
Max Gust Speed -    
Visibility 6 miles    
Events Fog , Rain    
Averages and records for this station are not official NWS values.
T = Trace of Precipitation, MM = Missing Value Source: NWS Daily Summary

Daily Weather History Graph

Daily Weather History Graph

Search for Another Location

Airport:

Trip Planner

Search our weather history database for the weather conditions in past years. The results will help you decide how hot, cold, wet, or windy it might be!

Date:

Astronomy

Sep. 06, 2014 Rise Set
Actual Time 6:35 AM MDT 7:14 PM MDT
Civil Twilight 6:10 AM MDT 7:39 PM MDT
Nautical Twilight 5:41 AM MDT 8:08 PM MDT
Astronomical Twilight 5:11 AM MDT 8:38 PM MDT
Moon 5:27 PM MDT (9/6) 3:47 AM MDT (9/6)
Length of Visible Light 13h 29m
Length of Day
12h 39m
Waxing Gibbous, 92% of the Moon is Illuminated
Sep 6
Waxing Gibbous
Sep 8
Full
Sep 15
Last Quarter
Sep 24
New
Oct 1
First Quarter

Hourly Weather History & Observations

Time (MDT) Temp. Dew Point Humidity Pressure Visibility Wind Dir Wind Speed Gust Speed Precip Events Conditions
12:14 AM 71.1 °F 66.9 °F 87% 30.16 in 8.0 mi NW 8.1 mph - 0.00 in Rain Light Rain
12:48 AM 68.0 °F 64.4 °F 88% 30.16 in 10.0 mi WNW 12.7 mph - 0.00 in Rain Light Rain
12:53 AM 68.0 °F 64.0 °F 87% 30.01 in 10.0 mi WNW 11.5 mph - 0.00 in Rain Light Rain
1:12 AM 66.9 °F 64.0 °F 90% 30.16 in 2.0 mi NW 17.3 mph - 0.00 in Rain Heavy Rain
1:22 AM 66.0 °F 64.0 °F 93% 30.15 in 6.0 mi NW 13.8 mph - N/A Rain Light Rain
1:41 AM 66.0 °F 63.0 °F 90% 30.15 in 10.0 mi NW 15.0 mph - N/A Rain Light Rain
1:48 AM 66.2 °F 62.6 °F 88% 30.15 in 10.0 mi NW 16.1 mph - N/A Rain Light Rain
2:50 AM 64.4 °F 60.8 °F 88% 30.15 in 10.0 mi NNW 19.6 mph - N/A   Overcast
2:53 AM 64.4 °F 60.8 °F 88% 30.15 in 10.0 mi NNW 20.7 mph - N/A   Overcast
3:53 AM 64.4 °F 60.8 °F 88% 30.16 in 2.0 mi NNW 15.0 mph - N/A Rain Heavy Rain
4:00 AM 64.0 °F 61.0 °F 90% 30.16 in 1.2 mi NNW 16.1 mph - N/A Rain Heavy Rain
4:04 AM 64.0 °F 61.0 °F 90% 30.16 in 3.0 mi NNW 16.1 mph - N/A Rain Light Rain
4:37 AM 64.0 °F 61.0 °F 90% 30.16 in 8.0 mi NNW 16.1 mph - N/A Rain Light Rain
4:53 AM 64.0 °F 61.0 °F 90% 30.01 in 7.0 mi NNW 18.4 mph - N/A Rain Light Rain
5:27 AM 64.4 °F 60.8 °F 88% 30.17 in 10.0 mi NNW 12.7 mph - N/A   Overcast
5:53 AM 64.0 °F 61.0 °F 90% 30.03 in 10.0 mi NW 11.5 mph - N/A   Overcast
6:06 AM 64.0 °F 61.0 °F 90% 30.17 in 10.0 mi WNW 11.5 mph - N/A   Overcast
6:53 AM 64.0 °F 61.0 °F 90% 30.05 in 5.0 mi NW 12.7 mph - N/A Rain Light Rain
7:53 AM 64.4 °F 62.6 °F 94% 30.20 in 8.0 mi NNW 13.8 mph - N/A   Overcast
8:53 AM 66.0 °F 63.0 °F 90% 30.07 in 2.0 mi North 11.5 mph - N/A Rain Light Rain
9:03 AM 66.0 °F 64.0 °F 93% 30.22 in 1.5 mi North 9.2 mph - N/A Rain Rain
9:42 AM 64.9 °F 63.0 °F 93% 30.24 in 1.2 mi North 15.0 mph - N/A Rain Rain
9:53 AM 64.9 °F 62.1 °F 90% 30.11 in 1.5 mi North 16.1 mph - N/A Rain Light Rain
10:07 AM 64.9 °F 62.1 °F 90% 30.24 in 2.0 mi North 15.0 mph - N/A Rain Light Rain
10:16 AM 64.9 °F 62.1 °F 90% 30.25 in 1.8 mi North 13.8 mph - N/A Rain Rain
10:22 AM 64.0 °F 62.1 °F 93% 30.25 in 2.0 mi North 13.8 mph - N/A Rain Light Rain
10:53 AM 64.0 °F 61.0 °F 90% 30.14 in 2.5 mi North 13.8 mph - N/A Rain Light Rain
11:02 AM 64.0 °F 61.0 °F 90% 30.26 in 1.0 mi North 11.5 mph - N/A Rain Heavy Rain
11:16 AM 63.0 °F 61.0 °F 93% 30.26 in 1.2 mi NNW 15.0 mph - N/A Rain Rain
11:28 AM 63.0 °F 61.0 °F 93% 30.26 in 2.5 mi NNW 13.8 mph - N/A Rain Rain
11:46 AM 63.0 °F 61.0 °F 93% 30.25 in 1.0 mi NW 13.8 mph - N/A Rain Heavy Rain
11:53 AM 63.0 °F 60.1 °F 90% 30.13 in 0.5 mi NW 13.8 mph - N/A Fog , Rain Heavy Rain
11:59 AM 63.0 °F 60.1 °F 90% 30.25 in 1.0 mi NNW 16.1 mph - 0.00 in Rain Heavy Rain
12:04 PM 63.0 °F 61.0 °F 93% 30.25 in 3.0 mi NNW 15.0 mph - 0.00 in Rain Light Rain
12:15 PM 64.0 °F 61.0 °F 90% 30.25 in 10.0 mi NNW 13.8 mph - 0.00 in Rain Light Rain
12:53 PM 64.0 °F 61.0 °F 90% 30.13 in 5.0 mi NNW 16.1 mph - 0.00 in Rain Light Rain
1:12 PM 64.0 °F 61.0 °F 90% 30.24 in 1.8 mi NNW 13.8 mph - 0.00 in Rain Light Rain
1:29 PM 64.4 °F 60.8 °F 88% 30.24 in 3.0 mi NW 16.1 mph - N/A Rain Light Rain
1:53 PM 64.9 °F 62.1 °F 90% 30.11 in 4.0 mi NNW 16.1 mph - 0.00 in Rain Light Rain
2:00 PM 64.9 °F 62.1 °F 90% 30.23 in 5.0 mi NNW 17.3 mph - 0.00 in   Overcast
2:09 PM 64.9 °F 62.1 °F 90% 30.22 in 7.0 mi NNW 16.1 mph - 0.00 in   Overcast
2:19 PM 64.4 °F 62.6 °F 94% 30.22 in 9.0 mi NNW 16.1 mph - N/A   Overcast
2:26 PM 64.9 °F 62.1 °F 90% 30.22 in 10.0 mi NNW 18.4 mph - 0.00 in   Overcast
2:53 PM 64.9 °F 62.1 °F 90% 30.10 in 10.0 mi North 13.8 mph - 0.00 in   Overcast
3:42 PM 66.0 °F 62.1 °F 87% 30.20 in 10.0 mi North 12.7 mph - N/A   Overcast
3:53 PM 66.0 °F 61.0 °F 84% 30.09 in 10.0 mi North 13.8 mph - N/A   Overcast
4:53 PM 66.9 °F 61.0 °F 81% 30.08 in 8.0 mi North 11.5 mph - N/A   Overcast
5:02 PM 66.2 °F 60.8 °F 83% 30.20 in 7.0 mi North 10.4 mph - N/A   Overcast
5:15 PM 66.0 °F 62.1 °F 87% 30.19 in 8.0 mi NNW 10.4 mph - N/A   Overcast
5:53 PM 66.0 °F 62.1 °F 87% 30.08 in 9.0 mi NNW 10.4 mph - N/A   Overcast
6:45 PM 66.0 °F 62.1 °F 87% 30.19 in 6.0 mi North 10.4 mph - N/A   Overcast
6:53 PM 66.0 °F 62.1 °F 87% 30.08 in 3.0 mi NNE 6.9 mph - 0.00 in Rain Light Rain
6:58 PM 64.9 °F 62.1 °F 90% 30.19 in 1.8 mi NNE 9.2 mph - 0.00 in Rain Light Rain
7:09 PM 64.9 °F 62.1 °F 90% 30.20 in 3.0 mi NE 9.2 mph - 0.00 in Rain Light Rain
7:53 PM 64.0 °F 62.1 °F 93% 30.10 in 4.0 mi NE 8.1 mph - 0.00 in   Overcast
8:02 PM 64.0 °F 62.1 °F 93% 30.22 in 8.0 mi NNE 8.1 mph - N/A   Overcast
8:53 PM 64.9 °F 62.1 °F 90% 30.12 in 9.0 mi NE 8.1 mph - N/A   Overcast
9:28 PM 64.9 °F 62.1 °F 90% 30.23 in 10.0 mi NNE 8.1 mph - N/A   Overcast
9:53 PM 64.9 °F 62.1 °F 90% 30.13 in 10.0 mi NNE 5.8 mph - N/A   Overcast
10:53 PM 64.9 °F 61.0 °F 87% 30.13 in 4.0 mi NNE 5.8 mph - 0.00 in Rain Light Rain
11:02 PM 64.9 °F 61.0 °F 87% 30.24 in 3.0 mi NNE 5.8 mph - 0.00 in Rain Light Rain
11:25 PM 64.0 °F 62.1 °F 93% 30.24 in 2.0 mi North 5.8 mph - 0.00 in Rain Rain
11:29 PM 64.4 °F 62.6 °F 94% 30.24 in 3.0 mi NNW 5.8 mph - N/A Rain Light Rain
11:53 PM 64.0 °F 62.1 °F 93% 30.13 in 9.0 mi North 8.1 mph - 0.00 in Rain Light Rain